[[{"header":{"parameterUnit":"m.s-1","parameterCategory":1,"la1":30.2991,"la2":30.254,"lo1":-89.0895,"lo2":-89.0444,"dy":0.0017,"dx":0.0017,"nx":28,"ny":28,"refTime":"2024-04-05T09:00:00:Z","depth":0,"parameterNumber":2,"parameterNumberName":"U-component_of_WINDS"},"data":[0,0,0,0,0,0,0,0,0,0,0,0,0,0,0,0,0,0,0,0,0,0,0,0,0,0,0,0,0,0,0,0,0,0,0,0,0,0,0,0,0,0,0,0,0,0,0,0,0,0,0,0,0,0,0,0,0,0,-5.0436,-5.0436,0,-5.0456,-5.0457,-5.0457,-5.0343,-5.034,-5.0337,-5.0334,-5.0356,-5.0359,-5.0363,0,0,0,0,0,0,0,0,0,0,0,0,0,-5.03,-5.0303,-5.0436,-5.0436,-5.0436,-5.0456,-5.0457,-5.0457,-5.0344,-5.034,-5.0336,-5.0332,-5.0354,-5.0359,-5.0363,0,0,0,0,0,0,0,0,0,0,0,0,0,-5.0344,-5.0305,-5.0436,-5.0382,-5.0378,-5.0456,-5.0457,-5.0457,-5.0345,-5.034,-5.0335,-5.033,-5.0353,-5.0358,-5.0364,-5.0495,0,0,-5.038,-5.0383,0,0,0,0,0,0,0,0,-5.0342,-5.0349,-5.039,-5.0386,-5.0381,-5.0392,-5.0417,-5.047,-5.0346,-5.0357,-5.0334,-5.0328,-5.0372,-5.0375,-5.039,-5.0496,-5.0497,-5.0381,-5.0384,-5.0386,-5.0388,0,0,0,0,0,0,0,-5.0339,-5.0348,-5.0444,-5.0391,-5.0385,-5.0358,-5.0359,-5.0426,-5.0392,-5.0356,-5.0348,-5.0352,-5.0368,-5.0385,-5.039,-5.0497,-5.0381,-5.0385,-5.0389,-5.0391,-5.0712,-5.0717,0,0,0,0,0,0,-5.0343,-5.0346,-5.0443,-5.0444,-5.0349,-5.0364,-5.0365,-5.0394,-5.0391,-5.0385,-5.0356,-5.0346,-5.0378,-5.0383,-5.039,-5.0543,-5.0386,-5.0391,-5.0394,-5.0707,-5.0713,-5.0719,0,0,0,0,0,0,-5.034,-5.0353,-5.0442,-5.0393,-5.0402,-5.0372,-5.0405,-5.0397,-5.0413,-5.0391,-5.0384,-5.0379,-5.0375,-5.0382,-5.047,-5.0543,-5.0394,-5.0399,-5.0701,-5.0709,-5.0716,-5.0852,0,0,0,0,0,0,-5.0337,-5.0352,-5.0401,-5.0395,-5.0405,-5.0522,-5.0409,-5.0401,-5.0422,-5.041,-5.041,-5.0406,-5.0371,-5.0462,-5.0475,-5.0547,-5.0403,-5.0694,-5.0704,-5.0714,-5.0841,-5.0863,-5.0883,0,0,0,0,0,-5.0332,-5.0439,-5.0404,-5.0417,-5.0466,-5.0526,-5.0532,-5.049,-5.0429,-5.0478,-5.0464,-5.0406,-5.0533,-5.0472,-5.0486,-5.0561,-5.0689,-5.0701,-5.0713,-5.0831,-5.0859,-5.0882,0,0,0,0,0,0,-5.0454,-5.0437,-5.0398,-5.0506,-5.0518,-5.0507,-5.0567,-5.052,-5.0551,-5.0538,-5.0485,-5.0486,-5.0582,-5.058,-5.0513,-5.0688,-5.06,-5.0616,-5.0686,-5.0712,-5.0733,-5.0731,-5.0407,0,0,0,0,0,-5.0494,-5.0543,-5.0525,-5.0622,-5.063,-5.0598,-5.0623,-5.0589,-5.06,-5.0605,-5.0597,-5.061,-5.0653,-5.0682,-5.072,-5.084,-5.0839,-5.0899,-5.092,-5.0937,-5.0951,-5.1015,-5.1041,-5.0758,-5.0758,-5.0758,0,0,-5.0575,-5.0572,-5.0606,-5.0646,-5.0652,-5.0705,-5.0603,-5.0664,-5.0703,-5.0614,-5.0696,-5.0691,-5.0702,-5.0807,-5.0852,-5.0808,-5.1029,-5.0952,-5.0966,-5.097,-5.103,-5.1057,-5.108,-5.0766,-5.0765,-5.0763,0,0,-5.0751,-5.0754,-5.0834,-5.0843,-5.0853,-5.0831,-5.0851,-5.0847,-5.084,-5.0922,-5.0856,-5.0903,-5.0977,-5.0988,-5.1004,-5.1186,-5.1134,-5.12,-5.131,-5.1373,-5.1395,-5.1415,-5.148,-5.1505,-5.1214,-5.1214,-5.1214,0,-5.0851,-5.0929,-5.0882,-5.0947,-5.0967,-5.0889,-5.0971,-5.0982,-5.1004,-5.102,-5.097,-5.1063,-5.1065,-5.1171,-5.1216,-5.1231,-5.1252,-5.1199,-5.1396,-5.1415,-5.1433,-5.1494,-5.1519,-5.1222,-5.1221,-5.122,-5.122,0,-5.1052,-5.1107,-5.1171,-5.1195,-5.1222,-5.1295,-5.126,-5.1293,-5.1258,-5.1242,-5.1327,-5.1327,-5.1364,-5.1387,-5.1353,-5.1489,-5.1461,-5.1405,-5.1316,-5.1468,-5.1526,-5.1549,-5.1234,-5.1231,-5.1228,-5.1226,0,0,-5.1303,-5.1301,-5.1326,-5.1336,-5.1343,-5.1384,-5.1455,-5.1491,-5.1521,-5.154,-5.1598,-5.1664,-5.1612,-5.163,-5.1597,-5.1652,-5.1797,-5.1588,-5.1588,-5.1627,-5.1948,-5.1991,-5.2019,-5.1763,-5.1768,-5.1771,-5.1947,0,-5.1476,-5.1595,-5.1556,-5.1678,-5.1728,-5.1656,-5.1718,-5.1729,-5.1717,-5.1758,-5.1744,-5.1792,-5.1719,-5.173,-5.1781,-5.1769,-5.1861,-5.1756,-5.1817,-5.182,-5.1816,-5.2048,-5.2093,-5.2259,-5.1969,-5.1973,-5.1976,0,-5.1692,-5.172,-5.1847,-5.1845,-5.1865,-5.1921,-5.1952,-5.1993,-5.2004,-5.1991,-5.2012,-5.1968,-5.2038,-5.195,-5.2046,-5.1975,-5.1998,-5.1996,-5.2002,-5.2005,-5.1907,-5.2059,-5.2311,-5.2336,-5.2011,-5.2008,-5.2005,0,-5.1863,-5.1932,-5.2017,-5.2028,-5.2029,-5.207,-5.2073,-5.2079,-5.2104,-5.2132,-5.2147,-5.2183,-5.2202,-5.2231,-5.2198,-5.2137,-5.23,-5.2208,-5.2292,-5.2293,-5.2328,-5.2326,-5.2588,-5.2344,-5.2344,-5.2343,-5.2343,0,-5.2059,-5.214,-5.2094,-5.2147,-5.2235,-5.219,-5.2279,-5.2273,-5.228,-5.2331,-5.2271,-5.232,-5.2273,-5.2318,-5.2293,-5.2377,-5.2386,-5.2378,-5.237,-5.2383,-5.2384,-5.2397,-5.2385,-5.235,-5.2349,-5.2347,-5.2346,0,-5.2265,-5.2238,-5.2326,-5.232,-5.232,-5.2386,-5.2381,-5.2429,-5.2413,-5.2478,-5.249,-5.2465,-5.2515,-5.2485,-5.2536,-5.2519,-5.2629,-5.2605,-5.2625,-5.2618,-5.2703,-5.2696,-5.2982,-5.3018,-5.2751,-5.2754,-5.2756,0,-5.2392,-5.2452,-5.2453,-5.2482,-5.2489,-5.2537,-5.2562,-5.2521,-5.255,-5.2569,-5.2615,-5.266,-5.2694,-5.2777,-5.2764,-5.2803,-5.278,-5.2878,-5.2785,-5.2797,-5.2781,-5.2778,-5.2784,-5.2896,-5.2899,-5.2902,-5.2904,0,-5.2619,-5.2603,-5.2642,-5.2677,-5.2709,-5.2734,-5.2754,-5.2782,-5.2741,-5.2777,-5.2827,-5.2853,-5.2906,-5.2951,-5.2985,-5.2987,-5.294,-5.2933,-5.2954,-5.2968,-5.2977,-5.2973,-5.2675,-5.2926,-5.2924,-5.2923,-5.2921,-5.292,-5.2789,-5.284,-5.2849,-5.2894,-5.2905,-5.2926,-5.2972,-5.2962,-5.3003,-5.3042,-5.3015,-5.3075,-5.3087,-5.3127,-5.3136,-5.3183,-5.3144,-5.3175,-5.3182,-5.319,-5.3202,-5.297,-5.3189,-5.3188,-5.3188,-5.3187,-5.3187,0,-5.3014,-5.3016,-5.3059,-5.3089,-5.3126,-5.3078,-5.3098,-5.3132,-5.3185,-5.32,-5.3234,-5.3293,-5.3337,-5.3328,-5.3369,-5.3408,-5.3387,-5.342,-5.3416,-5.3418,-5.3235,-5.3213,-5.3436,-5.3436,-5.3436,-5.3436,-5.3436,-5.3436,-5.3135,-5.3218,-5.3204,-5.3292,-5.3294,-5.3352,-5.3368,-5.3388,-5.3399,-5.3467,-5.3504,-5.3498,-5.3504,-5.3544,-5.3583,-5.3579,-5.3597,-5.3638,-5.3627,-5.3456,-5.3431,-5.3407,-5.3386,-5.3643,-5.3643,-5.3806,-5.3807,-5.3808]},{"header":{"parameterUnit":"m.s-1","parameterCategory":1,"la1":30.2991,"la2":30.254,"lo1":-89.0895,"lo2":-89.0444,"dy":0.0017,"dx":0.0017,"nx":28,"ny":28,"refTime":"2024-04-05T09:00:00:Z","depth":0,"parameterNumber":3,"parameterNumberName":"V-component_of_WINDS"},"data":[0,0,0,0,0,0,0,0,0,0,0,0,0,0,0,0,0,0,0,0,0,0,0,0,0,0,0,0,0,0,0,0,0,0,0,0,0,0,0,0,0,0,0,0,0,0,0,0,0,0,0,0,0,0,0,0,0,0,-0.626,-0.626,0,-0.6288,-0.6288,-0.6289,-0.6286,-0.6285,-0.6285,-0.6285,-0.6315,-0.6316,-0.6317,0,0,0,0,0,0,0,0,0,0,0,0,0,-0.6205,-0.6206,-0.626,-0.626,-0.6261,-0.6288,-0.6288,-0.6289,-0.6286,-0.6285,-0.6285,-0.6284,-0.6315,-0.6316,-0.6318,0,0,0,0,0,0,0,0,0,0,0,0,0,-0.623,-0.6206,-0.626,-0.6263,-0.6263,-0.6288,-0.6288,-0.6289,-0.6286,-0.6285,-0.6285,-0.6284,-0.6314,-0.6316,-0.6318,-0.6342,0,0,-0.6323,-0.6324,0,0,0,0,0,0,0,0,-0.6229,-0.6232,-0.6262,-0.6263,-0.6263,-0.6283,-0.628,-0.6307,-0.6286,-0.6277,-0.6285,-0.6284,-0.6305,-0.6307,-0.6314,-0.6343,-0.6345,-0.6323,-0.6325,-0.6325,-0.6326,0,0,0,0,0,0,0,-0.6227,-0.6231,-0.6271,-0.6262,-0.6263,-0.6263,-0.6265,-0.6285,-0.6295,-0.6278,-0.6278,-0.6281,-0.6305,-0.6312,-0.6315,-0.6345,-0.6323,-0.6325,-0.6326,-0.6327,-0.6394,-0.6395,0,0,0,0,0,0,-0.6225,-0.623,-0.627,-0.6272,-0.6244,-0.6264,-0.6267,-0.6277,-0.6294,-0.6296,-0.6282,-0.6281,-0.631,-0.6313,-0.6316,-0.6345,-0.6325,-0.6327,-0.6328,-0.6393,-0.6394,-0.6395,0,0,0,0,0,0,-0.6224,-0.6228,-0.6269,-0.6251,-0.6256,-0.6266,-0.6277,-0.6278,-0.6285,-0.6297,-0.6299,-0.6287,-0.6309,-0.6313,-0.6335,-0.6346,-0.6328,-0.633,-0.6393,-0.6394,-0.6395,-0.6403,0,0,0,0,0,0,-0.6222,-0.6228,-0.6237,-0.6251,-0.6257,-0.6288,-0.6277,-0.6279,-0.6288,-0.6288,-0.6303,-0.6305,-0.6309,-0.6332,-0.6337,-0.6348,-0.6331,-0.6392,-0.6393,-0.6394,-0.6402,-0.6404,-0.6406,0,0,0,0,0,-0.622,-0.6239,-0.6238,-0.6243,-0.6269,-0.6288,-0.6292,-0.6296,-0.6289,-0.6299,-0.6306,-0.6304,-0.6344,-0.6335,-0.634,-0.6351,-0.6391,-0.6393,-0.6394,-0.6401,-0.6404,-0.6406,0,0,0,0,0,0,-0.6228,-0.6241,-0.624,-0.6264,-0.6275,-0.6288,-0.63,-0.6299,-0.6313,-0.6311,-0.6316,-0.632,-0.6341,-0.6348,-0.6338,-0.6375,-0.6367,-0.6369,-0.637,-0.6373,-0.6375,-0.6373,-0.6332,0,0,0,0,0,-0.6232,-0.6247,-0.6258,-0.6278,-0.6283,-0.6291,-0.6299,-0.6301,-0.6313,-0.6318,-0.6327,-0.6339,-0.6353,-0.6363,-0.6378,-0.6402,-0.6405,-0.6413,-0.6415,-0.6417,-0.6419,-0.6432,-0.6435,-0.64,-0.64,-0.64,0,0,-0.6242,-0.6251,-0.626,-0.628,-0.6288,-0.6303,-0.6295,-0.6311,-0.6322,-0.6321,-0.6341,-0.6348,-0.6361,-0.6384,-0.6395,-0.6391,-0.6429,-0.6419,-0.642,-0.6422,-0.6434,-0.6437,-0.644,-0.6401,-0.6401,-0.6401,0,0,-0.6267,-0.6275,-0.6293,-0.6301,-0.6313,-0.6318,-0.6322,-0.6335,-0.6339,-0.6359,-0.6358,-0.6371,-0.6397,-0.6406,-0.6414,-0.644,-0.6439,-0.6445,-0.6456,-0.6469,-0.6471,-0.6474,-0.6483,-0.6486,-0.6447,-0.6447,-0.6447,0,-0.6277,-0.6299,-0.6302,-0.6318,-0.6326,-0.6324,-0.6341,-0.6349,-0.6366,-0.6372,-0.6367,-0.6398,-0.6407,-0.6432,-0.6438,-0.6445,-0.6449,-0.6443,-0.6471,-0.6473,-0.6475,-0.6484,-0.6487,-0.6447,-0.6447,-0.6447,-0.6447,0,-0.6311,-0.6326,-0.6339,-0.6354,-0.6364,-0.638,-0.6385,-0.6395,-0.6395,-0.64,-0.642,-0.643,-0.6446,-0.6452,-0.6453,-0.6476,-0.6473,-0.6469,-0.6461,-0.6479,-0.6487,-0.6491,-0.6448,-0.6448,-0.6448,-0.6448,0,0,-0.6344,-0.6358,-0.6363,-0.6369,-0.6382,-0.6394,-0.641,-0.6424,-0.6432,-0.6443,-0.6457,-0.6477,-0.6473,-0.6482,-0.6484,-0.6495,-0.6514,-0.649,-0.649,-0.6494,-0.6539,-0.6542,-0.6546,-0.6513,-0.6513,-0.6514,-0.6538,0,-0.637,-0.6398,-0.6399,-0.6425,-0.6438,-0.6435,-0.6449,-0.6458,-0.6463,-0.6475,-0.648,-0.6494,-0.6488,-0.6493,-0.6503,-0.6509,-0.6523,-0.6508,-0.6526,-0.6526,-0.6523,-0.655,-0.6554,-0.6576,-0.6541,-0.6542,-0.6542,0,-0.6405,-0.6416,-0.6442,-0.6451,-0.6457,-0.6469,-0.6482,-0.6493,-0.6503,-0.6506,-0.6515,-0.6515,-0.6531,-0.6521,-0.6543,-0.6532,-0.6539,-0.6543,-0.6544,-0.6547,-0.6536,-0.6553,-0.6584,-0.6587,-0.6547,-0.6547,-0.6547,0,-0.6425,-0.6446,-0.6465,-0.647,-0.6482,-0.649,-0.6495,-0.6505,-0.6513,-0.6524,-0.6529,-0.6542,-0.6549,-0.6559,-0.6562,-0.6555,-0.6584,-0.6575,-0.6587,-0.6586,-0.6594,-0.6593,-0.6626,-0.6598,-0.6598,-0.6598,-0.6598,0,-0.6454,-0.6471,-0.6474,-0.6485,-0.6503,-0.6504,-0.6521,-0.6526,-0.6534,-0.6546,-0.6544,-0.6556,-0.6559,-0.6571,-0.6573,-0.6591,-0.6594,-0.6597,-0.6597,-0.6597,-0.6597,-0.6602,-0.6601,-0.6599,-0.6598,-0.6598,-0.6598,0,-0.6481,-0.6484,-0.6503,-0.6511,-0.6514,-0.6527,-0.6534,-0.6544,-0.6548,-0.6563,-0.6566,-0.6572,-0.6586,-0.6589,-0.6606,-0.6608,-0.6628,-0.6628,-0.6625,-0.6625,-0.6636,-0.6635,-0.6674,-0.6679,-0.6647,-0.6648,-0.6648,0,-0.6499,-0.6512,-0.6521,-0.6528,-0.6533,-0.6546,-0.6553,-0.6554,-0.6563,-0.6574,-0.6583,-0.6596,-0.6607,-0.6629,-0.6634,-0.6647,-0.6646,-0.6659,-0.6648,-0.6647,-0.6646,-0.6645,-0.6646,-0.6661,-0.6661,-0.6662,-0.6662,0,-0.6532,-0.6532,-0.6543,-0.6554,-0.6563,-0.6572,-0.658,-0.6587,-0.6589,-0.6598,-0.6611,-0.6619,-0.6635,-0.6649,-0.6661,-0.6666,-0.6665,-0.6665,-0.6668,-0.6668,-0.6666,-0.6667,-0.663,-0.6664,-0.6664,-0.6664,-0.6664,-0.6664,-0.6555,-0.6565,-0.6573,-0.6584,-0.659,-0.6598,-0.6608,-0.6612,-0.6623,-0.6635,-0.6635,-0.665,-0.6658,-0.6674,-0.668,-0.6691,-0.6688,-0.6693,-0.6694,-0.6695,-0.6696,-0.6664,-0.6693,-0.6693,-0.6693,-0.6693,-0.6693,0,-0.6587,-0.6591,-0.6602,-0.6613,-0.6622,-0.6618,-0.6627,-0.6635,-0.6647,-0.6655,-0.6665,-0.6679,-0.6691,-0.6697,-0.6709,-0.6717,-0.6716,-0.672,-0.672,-0.6721,-0.6699,-0.6694,-0.672,-0.672,-0.672,-0.672,-0.672,-0.672,-0.6605,-0.6621,-0.6622,-0.6641,-0.6646,-0.6659,-0.6664,-0.6671,-0.6677,-0.6693,-0.6702,-0.6706,-0.6712,-0.6724,-0.6735,-0.6737,-0.6741,-0.6745,-0.6746,-0.6725,-0.6723,-0.672,-0.6716,-0.6746,-0.6746,-0.6768,-0.6768,-0.6768]}]]